TimeEST,TemperatureF,Dew PointF,Humidity,Sea Level PressureIn,VisibilityMPH,Wind Direction,Wind SpeedMPH,Gust SpeedMPH,PrecipitationIn,Events,Conditions,WindDirDegrees,DateUTC
12:53 AM,55.0,51.1,86,30.09,10.0,NW,4.6,-,N/A,,Clear,310,2013-02-09 05:53:00
1:53 AM,54.0,51.1,90,30.10,10.0,NW,4.6,-,N/A,,Clear,320,2013-02-09 06:53:00
2:53 AM,55.0,51.1,86,30.11,10.0,NNW,13.8,-,N/A,,Clear,340,2013-02-09 07:53:00
3:53 AM,53.1,50.0,89,30.12,10.0,NNW,12.7,-,N/A,,Clear,340,2013-02-09 08:53:00
4:53 AM,52.0,48.0,86,30.14,10.0,NNW,11.5,-,N/A,,Clear,340,2013-02-09 09:53:00
5:53 AM,52.0,46.9,83,30.17,10.0,North,15.0,-,N/A,,Clear,350,2013-02-09 10:53:00
6:53 AM,51.1,45.0,80,30.18,10.0,North,16.1,-,N/A,,Partly Cloudy,360,2013-02-09 11:53:00
7:53 AM,50.0,45.0,83,30.20,10.0,North,13.8,-,N/A,,Partly Cloudy,10,2013-02-09 12:53:00
8:53 AM,52.0,46.0,80,30.21,10.0,North,8.1,-,N/A,,Scattered Clouds,360,2013-02-09 13:53:00
9:53 AM,54.0,48.0,80,30.25,10.0,NNW,6.9,-,N/A,,Scattered Clouds,330,2013-02-09 14:53:00
10:53 AM,60.1,50.0,69,30.25,10.0,NNE,8.1,-,N/A,,Scattered Clouds,20,2013-02-09 15:53:00
11:53 AM,63.0,48.0,58,30.25,10.0,NNE,15.0,-,N/A,,Scattered Clouds,30,2013-02-09 16:53:00
12:53 PM,64.0,46.0,52,30.24,10.0,NNE,11.5,-,N/A,,Partly Cloudy,30,2013-02-09 17:53:00
1:53 PM,64.0,43.0,46,30.22,10.0,NE,12.7,-,N/A,,Scattered Clouds,50,2013-02-09 18:53:00
2:53 PM,64.0,44.1,48,30.22,10.0,ENE,11.5,24.2,N/A,,Scattered Clouds,60,2013-02-09 19:53:00
3:53 PM,63.0,42.1,46,30.22,10.0,ENE,10.4,-,N/A,,Scattered Clouds,60,2013-02-09 20:53:00
4:53 PM,62.1,39.9,44,30.24,10.0,ENE,10.4,-,N/A,,Partly Cloudy,70,2013-02-09 21:53:00
5:53 PM,60.1,39.0,46,30.24,10.0,ENE,11.5,-,N/A,,Scattered Clouds,60,2013-02-09 22:53:00
6:53 PM,57.9,41.0,53,30.23,10.0,NE,5.8,-,N/A,,Scattered Clouds,40,2013-02-09 23:53:00
7:53 PM,57.0,43.0,59,30.25,10.0,NNE,6.9,-,N/A,,Partly Cloudy,30,2013-02-10 00:53:00
8:53 PM,57.0,45.0,64,30.26,10.0,NNE,6.9,-,N/A,,Clear,20,2013-02-10 01:53:00
9:53 PM,57.0,46.0,67,30.27,10.0,NNE,8.1,-,N/A,,Clear,20,2013-02-10 02:53:00
10:53 PM,55.9,46.0,69,30.26,10.0,NE,8.1,-,N/A,,Clear,50,2013-02-10 03:53:00
11:53 PM,57.0,46.9,69,30.26,10.0,ENE,6.9,-,N/A,,Clear,60,2013-02-10 04:53:00